Wind_Speed
40 39 43 56 58 64 62 68 78 60 55 53 60 57 58 56 59 59 47 47 44 49 55 58 55 45 44 37 23 32 37 41 43 47 49 52 53 54 57 61 68 75 79
41 44 40 48 56 53 62 61 63 67 76 44 52 59 55 55 56 52 45 43 50 47 45 49 47 47 44 28 24 29 38 41 42 46 50 51 51 54 59 66 74 79 80
44 45 43 41 51 51 52 59 55 71 69 87 55 55 52 55 50 46 44 54 48 51 41 33 46 41 43 23 19 30 37 40 41 45 48 48 51 57 65 73 79 77 61
45 47 48 44 52 50 43 52 58 53 78 73 62 38 48 46 49 46 47 51 56 53 54 43 47 47 33 16 21 29 36 37 41 44 44 47 54 62 68 74 69 61 53
47 48 48 51 52 55 54 46 51 51 74 73 78 60 52 49 52 49 46 45 52 43 44 40 41 35 18 12 18 29 33 37 39 40 44 51 58 65 72 72 65 54 46
44 46 50 52 52 50 55 53 51 55 60 78 61 61 58 54 52 50 48 49 51 46 41 39 35 16 10 13 23 29 34 33 35 41 48 54 60 68 71 68 57 45 41
39 40 41 46 52 51 46 56 55 48 49 61 65 56 57 59 57 53 52 46 42 46 41 27 18 11 9 17 22 29 29 32 38 44 49 55 62 69 71 52 41 39 42
39 41 41 44 47 50 47 47 53 51 55 53 66 58 61 55 53 54 43 35 49 35 33 24 13 7 9 14 24 24 27 35 41 44 47 54 62 68 63 44 32 39 38
38 39 35 38 47 53 43 41 46 50 52 54 63 68 59 53 49 53 52 47 35 31 19 13 9 4 12 17 18 24 31 36 40 43 46 51 59 64 42 30 34 32 34
40 47 38 41 47 47 45 39 46 50 49 52 63 64 57 55 53 53 46 46 38 28 18 11 1 9 12 13 20 27 32 35 39 40 43 51 58 41 30 31 29 29 30
42 44 44 42 41 41 45 51 51 51 43 50 55 65 68 58 53 41 47 38 33 21 12 6 4 7 10 16 23 27 32 34 37 38 45 53 34 29 29 30 30 28 29
41 43 40 43 42 42 50 48 52 53 37 45 52 53 63 58 53 51 42 35 22 17 10 6 6 7 12 18 22 27 32 35 35 38 48 32 28 29 30 30 30 28 27
38 41 46 44 39 45 47 46 51 24 48 39 43 47 50 50 46 51 35 26 19 15 11 8 4 9 14 19 24 28 35 32 36 41 32 27 29 29 29 29 32 34 28
41 45 44 45 43 43 48 56 37 27 52 41 43 37 42 39 40 32 27 22 18 14 9 3 6 11 16 22 26 32 31 34 38 33 28 29 27 28 28 27 29 30 29
39 40 43 44 42 47 40 30 29 34 41 32 43 49 45 39 34 28 24 21 15 9 3 3 8 13 18 25 28 26 30 31 32 29 27 28 28 27 27 26 26 27 25
41 42 40 37 36 36 29 39 25 44 48 53 49 42 41 35 30 28 23 16 11 6 2 5 10 16 22 23 24 24 26 29 29 27 27 28 27 24 25 25 25 25 23
45 44 33 31 20 24 27 50 63 59 49 47 47 43 39 33 29 23 17 12 8 4 3 9 14 18 20 21 26 24 27 29 29 29 28 27 26 24 23 24 25 26 24
19 8 26 40 59 65 62 59 51 47 45 42 44 40 36 30 25 19 14 11 5 1 7 15 14 18 22 22 23 26 28 28 29 29 28 27 26 23 22 22 23 23 24
59 69 69 65 60 55 52 49 47 43 40 37 37 36 31 25 20 14 11 6 3 7 9 14 20 20 20 24 27 28 28 28 27 28 28 26 25 23 22 20 21 22 22
62 62 59 56 54 54 51 47 44 42 40 37 33 29 23 20 15 12 5 3 5 9 13 18 21 22 25 29 28 27 27 27 28 27 26 25 23 21 20 19 20 21 20
48 50 47 45 44 45 43 40 39 37 33 30 27 22 18 14 11 5 4 4 7 12 18 23 24 27 28 28 27 28 29 29 29 27 27 26 24 23 20 19 20 19 19
47 46 43 40 41 40 41 38 34 29 27 25 21 17 13 9 5 4 4 7 14 19 23 24 27 28 27 26 27 29 29 30 30 29 27 26 25 24 21 18 17 17 16
39 39 40 41 39 37 33 30 27 25 21 19 16 14 9 5 4 3 9 15 19 22 24 26 25 25 26 29 28 29 31 32 29 28 26 25 24 23 21 18 16 14 15
38 40 38 36 34 31 28 24 21 19 17 14 10 5 1 5 8 10 13 17 21 23 24 22 24 26 28 30 29 31 31 29 28 27 26 24 22 21 19 17 15 14 11
38 36 34 30 27 25 22 19 16 13 9 6 3 4 7 9 10 14 18 22 26 24 22 24 25 29 32 32 32 31 30 29 27 25 23 22 20 19 18 16 14 12 12
34 31 28 24 20 17 13 11 9 6 2 2 4 7 10 10 14 19 22 24 23 22 24 26 30 33 32 32 31 29 28 28 26 23 22 21 20 18 17 15 13 11 11
Wind_Direction
245 244 243 237 241 230 229 223 228 221 229 204 225 235 241 248 248 249 259 262 257 259 263 269 258 260 264 263 267 280 289 296 301 305 308 311 310 315 316 318 317 310 310
241 243 246 241 231 234 225 225 221 220 219 224 216 224 231 239 244 245 244 252 257 254 262 275 267 255 260 253 264 281 292 297 304 308 311 309 317 317 318 316 310 310 319
239 235 239 240 231 232 227 222 214 223 215 226 219 227 230 237 240 237 237 242 270 267 266 262 250 261 259 252 267 290 295 302 308 311 308 317 318 319 317 313 312 321 332
240 239 233 236 227 226 224 217 219 218 220 207 225 225 229 241 242 239 237 238 249 261 274 242 248 253 251 251 287 290 299 307 309 307 316 318 319 317 313 311 322 331 332
239 246 240 227 227 224 223 215 215 217 221 216 220 231 231 240 242 247 247 250 246 261 246 245 252 243 238 270 286 299 305 306 307 315 318 319 317 314 311 319 329 332 332
240 242 238 230 223 225 224 217 216 216 222 222 217 214 236 240 244 253 252 251 252 253 238 252 244 224 244 287 301 304 301 307 316 318 319 318 315 311 319 328 332 333 329
238 237 225 214 215 221 221 218 213 212 216 225 218 214 229 234 241 249 252 256 268 255 239 231 214 218 280 306 304 299 308 318 319 320 320 316 313 313 325 334 334 333 331
233 223 213 210 214 216 216 215 215 206 207 217 218 219 225 228 236 247 252 259 249 264 235 209 198 242 289 299 297 310 321 321 318 319 319 314 314 318 327 335 335 334 336
217 211 206 212 216 214 215 219 205 202 199 209 208 220 224 226 240 248 248 253 260 230 203 201 221 274 295 291 312 322 322 318 320 323 319 313 310 314 330 339 337 339 343
213 210 210 217 220 218 217 212 203 194 199 205 207 216 224 232 239 245 252 257 227 205 198 202 150 281 290 307 320 322 318 323 329 324 319 312 317 323 331 335 344 346 348
207 209 212 216 214 202 199 202 190 188 189 205 204 212 222 229 236 244 238 233 205 184 175 131 246 268 299 320 320 322 328 333 333 327 312 316 321 333 345 348 347 347 353
193 187 188 194 190 191 190 184 176 170 173 198 197 211 219 228 235 236 210 194 178 156 131 190 235 280 318 318 325 336 338 340 334 316 313 320 332 340 343 341 342 348 352
177 181 178 180 182 180 185 174 189 190 176 201 196 213 224 236 221 200 192 166 146 129 169 200 260 311 314 328 335 338 341 338 308 311 314 327 332 333 339 338 339 343 353
149 159 174 175 170 174 168 176 191 177 174 200 210 213 205 197 173 159 148 130 143 161 175 215 296 318 331 333 336 340 338 310 310 312 323 331 334 339 339 341 343 341 341
146 158 164 170 172 169 170 197 173 175 194 200 192 180 174 161 153 136 130 149 152 156 170 278 320 330 334 337 336 333 311 311 313 322 330 333 339 338 338 343 345 340 339
135 141 146 155 161 155 176 191 165 176 165 152 147 150 151 137 128 140 143 140 141 156 215 318 330 331 329 329 328 324 321 316 320 327 331 334 331 333 337 343 347 346 344
145 141 146 159 159 201 166 143 145 137 138 145 139 134 130 136 140 140 140 143 154 166 328 326 324 323 316 325 330 323 325 322 322 322 324 323 325 329 334 341 345 348 348
123 139 152 135 130 130 132 131 135 142 135 130 128 133 138 140 138 141 146 154 149 33 325 316 311 327 325 325 328 333 328 322 319 314 316 316 316 321 328 334 341 344 352
119 120 123 125 122 123 127 131 127 123 126 133 135 137 137 140 140 143 154 129 35 308 312 332 332 327 332 336 339 333 325 318 315 315 315 315 316 318 319 328 336 341 350
117 118 118 120 122 126 126 126 129 134 139 140 137 138 139 134 142 139 130 240 276 326 330 329 341 341 339 336 333 326 318 317 315 315 314 315 318 319 319 324 330 335 343
116 122 125 126 123 123 128 133 136 138 137 136 138 136 137 138 137 158 215 296 320 326 338 346 344 339 332 328 325 318 314 315 315 314 316 316 316 314 316 319 321 331 339
121 124 128 130 131 135 136 137 136 133 135 138 140 145 146 155 171 219 262 326 340 341 343 340 335 334 329 325 322 320 320 318 317 315 315 316 317 316 314 316 318 328 335
130 133 133 132 134 132 132 131 131 134 139 146 151 155 166 187 234 276 325 338 338 336 334 335 333 325 326 327 323 325 324 322 321 321 320 321 319 316 313 314 316 326 329
134 133 133 132 132 131 131 132 135 139 144 147 147 142 68 339 324 323 327 331 332 335 334 330 325 325 327 326 327 327 325 324 324 324 322 322 321 319 318 318 319 319 324
138 137 136 135 133 134 138 140 140 139 130 118 87 7 338 326 322 331 331 336 338 331 328 326 324 329 331 329 324 323 324 326 325 324 324 323 322 322 323 321 319 319 319
139 139 137 136 138 137 139 139 133 129 157 252 288 311 327 329 331 334 336 332 327 329 328 329 330 327 326 323 322 325 327 326 327 327 326 326 328 329 327 325 321 316 315
Height
5627 5631 5636 5644 5651 5666 5675 5685 5697 5713 5721 5728 5738 5748 5755 5762 5768 5773 5777 5779 5781 5781 5781 5782 5780 5778 5776 5775 5773 5774 5774 5770 5766 5761 5755 5749 5739 5731 5720 5710 5698 5681 5666
5616 5620 5624 5629 5638 5647 5662 5673 5683 5702 5710 5697 5723 5733 5741 5749 5756 5763 5769 5759 5765 5769 5771 5774 5773 5766 5769 5767 5767 5768 5766 5763 5758 5755 5748 5741 5732 5721 5710 5697 5680 5665 5654
5603 5608 5613 5617 5625 5637 5649 5662 5673 5686 5698 5707 5717 5722 5732 5738 5746 5754 5759 5763 5759 5757 5758 5763 5761 5759 5762 5761 5761 5762 5761 5758 5753 5748 5742 5733 5723 5711 5699 5683 5665 5653 5641
5589 5596 5603 5607 5615 5627 5639 5650 5662 5670 5686 5698 5701 5713 5723 5729 5738 5744 5749 5755 5755 5755 5758 5753 5753 5754 5752 5755 5755 5756 5755 5751 5746 5741 5734 5724 5713 5700 5686 5670 5658 5644 5636
5577 5581 5588 5596 5604 5615 5627 5639 5649 5660 5672 5689 5701 5711 5719 5724 5729 5736 5742 5747 5748 5748 5744 5747 5748 5747 5750 5749 5750 5751 5749 5744 5740 5735 5725 5715 5701 5687 5671 5661 5649 5640 5629
5564 5567 5573 5584 5594 5604 5615 5625 5634 5648 5664 5678 5695 5706 5712 5716 5724 5728 5734 5737 5737 5739 5742 5742 5742 5746 5746 5746 5747 5747 5743 5738 5733 5726 5717 5704 5691 5674 5662 5651 5641 5633 5628
5553 5556 5561 5573 5584 5595 5603 5609 5623 5638 5657 5669 5686 5697 5703 5710 5718 5723 5726 5733 5736 5737 5735 5735 5740 5741 5741 5741 5742 5740 5737 5733 5727 5720 5708 5694 5680 5666 5656 5646 5636 5628 5621
5541 5548 5554 5565 5576 5583 5590 5602 5616 5630 5646 5660 5675 5685 5694 5703 5711 5716 5725 5726 5733 5731 5730 5731 5734 5734 5736 5738 5737 5734 5731 5726 5722 5711 5698 5684 5672 5661 5649 5640 5634 5625 5616
5532 5542 5549 5558 5567 5574 5587 5598 5609 5625 5639 5652 5666 5677 5687 5696 5704 5710 5716 5719 5725 5725 5728 5729 5730 5732 5732 5733 5731 5728 5725 5721 5712 5700 5687 5677 5667 5657 5644 5638 5631 5623 5616
5521 5533 5543 5552 5560 5570 5586 5593 5602 5617 5632 5646 5656 5670 5680 5689 5698 5704 5711 5717 5717 5719 5724 5728 5726 5728 5728 5728 5726 5724 5721 5712 5700 5690 5681 5668 5659 5652 5643 5635 5626 5619 5614
5508 5522 5533 5543 5554 5565 5577 5584 5595 5613 5628 5641 5653 5666 5673 5683 5692 5702 5705 5710 5711 5716 5719 5720 5722 5725 5725 5725 5724 5719 5712 5701 5691 5682 5671 5661 5655 5646 5636 5630 5627 5621 5615
5498 5512 5526 5540 5551 5559 5569 5582 5591 5599 5620 5638 5648 5660 5669 5677 5687 5696 5697 5702 5708 5711 5713 5718 5721 5723 5723 5721 5716 5709 5702 5693 5685 5674 5667 5659 5650 5641 5633 5627 5624 5619 5611
5492 5510 5526 5541 5550 5558 5574 5586 5591 5604 5627 5634 5645 5656 5669 5675 5682 5685 5693 5699 5704 5707 5713 5718 5719 5719 5718 5713 5709 5701 5694 5688 5679 5671 5664 5654 5646 5640 5632 5626 5619 5611 5607
5502 5516 5530 5544 5551 5560 5575 5588 5595 5603 5620 5641 5647 5656 5664 5670 5678 5686 5692 5697 5702 5708 5712 5714 5715 5714 5711 5708 5702 5695 5688 5681 5674 5666 5656 5649 5644 5637 5631 5626 5619 5611 5606
5513 5524 5536 5549 5558 5569 5580 5590 5602 5613 5629 5638 5646 5654 5663 5670 5677 5684 5691 5698 5702 5706 5709 5710 5710 5709 5706 5701 5697 5691 5685 5677 5668 5659 5651 5646 5640 5636 5630 5623 5617 5611 5605
5528 5536 5548 5560 5571 5578 5587 5595 5609 5625 5631 5638 5645 5656 5663 5673 5680 5687 5692 5697 5701 5704 5706 5707 5706 5703 5702 5697 5692 5686 5678 5668 5661 5652 5647 5643 5639 5633 5629 5622 5615 5611 5604
5541 5551 5559 5567 5574 5584 5590 5600 5613 5622 5636 5642 5650 5658 5665 5675 5682 5688 5693 5697 5700 5702 5704 5704 5701 5699 5698 5691 5687 5677 5669 5662 5654 5649 5644 5641 5637 5631 5625 5620 5617 5610 5603
5550 5553 5561 5571 5581 5592 5603 5615 5627 5638 5643 5649 5652 5663 5672 5679 5684 5689 5693 5697 5699 5699 5700 5701 5699 5693 5691 5684 5676 5669 5663 5656 5650 5646 5641 5637 5632 5627 5622 5619 5615 5610 5603
5563 5566 5579 5589 5599 5608 5618 5628 5636 5642 5651 5660 5663 5668 5673 5682 5686 5690 5695 5695 5696 5698 5698 5696 5692 5688 5681 5675 5669 5663 5656 5651 5646 5642 5636 5632 5627 5623 5619 5615 5612 5608 5601
5582 5589 5597 5605 5613 5622 5629 5635 5642 5649 5656 5664 5669 5675 5681 5683 5687 5690 5692 5694 5695 5694 5691 5690 5684 5678 5674 5670 5663 5656 5653 5647 5642 5636 5631 5626 5622 5618 5615 5611 5609 5604 5600
5598 5604 5613 5619 5624 5630 5637 5645 5652 5659 5665 5669 5674 5678 5682 5686 5688 5690 5692 5691 5690 5688 5685 5680 5676 5674 5670 5663 5656 5652 5647 5641 5635 5631 5626 5622 5617 5613 5610 5607 5605 5600 5596
5614 5619 5623 5629 5636 5641 5648 5654 5660 5664 5669 5673 5677 5682 5684 5687 5689 5689 5688 5687 5684 5681 5677 5676 5673 5667 5662 5656 5652 5647 5640 5634 5630 5626 5621 5617 5612 5608 5605 5602 5600 5595 5593
5626 5630 5635 5640 5646 5651 5657 5661 5666 5669 5674 5677 5680 5683 5685 5686 5685 5684 5683 5680 5679 5678 5675 5670 5664 5661 5656 5650 5645 5638 5633 5628 5624 5619 5615 5610 5607 5603 5600 5597 5594 5592 5589
5635 5640 5646 5651 5655 5660 5663 5667 5670 5673 5676 5679 5681 5682 5682 5681 5681 5680 5680 5679 5677 5671 5666 5662 5660 5656 5649 5643 5636 5632 5627 5623 5618 5614 5609 5605 5601 5599 5595 5592 5589 5587 5587
5643 5648 5652 5657 5661 5663 5667 5669 5671 5674 5676 5677 5677 5678 5679 5680 5680 5679 5678 5672 5667 5666 5663 5659 5653 5646 5641 5636 5631 5627 5622 5616 5612 5608 5604 5600 5596 5593 5590 5587 5585 5584 5582
5648 5652 5656 5659 5663 5666 5669 5670 5671 5673 5675 5677 5678 5678 5677 5676 5676 5674 5669 5666 5665 5660 5656 5649 5644 5640 5635 5631 5626 5621 5616 5612 5608 5603 5599 5595 5591 5587 5585 5582 5581 5580 5579